Wind_Speed
15 12 11 13 13 14 16 15 15 16 19 20 20 20 18 16 16 17 19 19 19 17 15 14 14 15 17 20 23 26 29 30 31 32 35 38 40 43 44 46 46 45 44 42 41 43 47 51 50 45 41 38 36 34 32 32 33 33 33 33 34 35 35 36 39 42 44 46 48 50 50 52 52 51 52 52 50 49 51 53 55 57 57 57 57
15 13 12 12 12 13 15 15 14 15 18 19 20 21 20 18 18 19 20 19 19 17 15 14 13 14 16 18 22 26 29 31 32 35 38 41 43 45 47 48 48 47 45 45 47 51 54 53 48 43 39 36 34 33 32 32 32 32 32 31 30 30 30 30 32 34 37 38 41 44 45 47 48 48 49 50 49 47 47 49 50 52 54 56 56
15 14 12 12 13 13 14 15 14 15 16 18 19 21 21 21 21 22 21 20 19 18 16 15 14 14 15 17 20 25 29 32 34 36 40 42 45 47 49 49 49 48 48 50 53 56 54 49 44 40 37 34 34 34 34 33 32 31 30 28 27 27 27 27 28 30 31 33 35 37 38 40 41 42 43 45 45 45 45 45 45 47 49 52 55
16 15 13 13 14 14 14 15 14 14 15 16 19 20 21 22 23 24 23 22 20 19 17 16 14 14 15 17 20 25 30 32 33 36 40 43 46 48 49 50 50 50 51 53 55 54 49 44 40 36 35 35 35 35 34 33 32 30 29 27 26 26 26 27 28 28 29 29 31 33 34 34 34 36 37 39 40 41 42 42 42 42 44 47 50
18 16 15 14 14 14 14 15 15 14 14 16 19 21 22 23 24 25 25 23 22 20 18 17 15 15 15 16 20 25 29 31 33 37 40 43 46 48 50 51 52 52 52 53 52 49 45 40 37 35 35 36 36 35 34 33 32 31 29 28 27 26 26 25 26 26 26 27 28 28 29 29 29 30 31 33 35 37 38 39 39 39 40 41 42
19 19 17 16 14 14 14 14 15 15 15 16 18 20 22 24 25 27 26 25 23 21 19 18 16 15 15 17 20 25 28 30 33 37 41 44 47 49 51 52 53 53 52 52 50 46 41 37 35 35 36 36 37 36 34 34 33 31 29 28 27 25 25 23 23 23 22 23 24 23 22 22 23 24 25 27 29 31 33 34 33 34 37 38 37
20 21 19 17 15 14 13 14 16 15 16 17 18 21 23 24 26 28 27 26 23 21 20 18 17 15 15 18 22 25 27 29 33 37 41 44 48 50 52 53 54 54 53 51 47 42 38 35 35 36 37 37 37 36 36 35 33 30 28 26 26 25 23 22 21 20 19 20 20 18 17 17 17 19 21 22 25 27 28 28 27 29 33 34 34
21 22 22 20 18 15 13 15 17 16 17 18 20 21 23 25 27 28 29 26 23 21 20 19 18 15 15 18 23 25 26 28 31 36 40 44 48 51 53 53 54 54 52 49 45 40 37 35 36 37 38 38 37 37 37 36 34 31 28 26 25 24 23 21 20 18 17 17 16 15 14 15 15 16 17 18 20 23 23 24 25 26 28 28 30
22 24 24 23 21 17 14 15 18 17 18 19 21 22 24 25 27 29 29 26 23 20 19 19 18 15 15 18 23 25 26 27 30 34 38 42 46 50 53 53 54 54 52 49 44 40 37 36 36 38 39 39 38 37 36 36 34 32 30 28 27 25 24 22 20 18 17 15 14 13 12 11 13 15 15 15 16 18 19 22 24 24 24 25 27
24 26 26 26 24 20 17 16 18 18 19 21 22 23 24 25 26 29 29 26 22 20 19 19 18 16 15 18 22 24 25 27 29 32 36 40 44 49 52 53 53 53 53 50 46 41 38 36 36 37 39 40 39 37 36 35 35 34 32 31 30 28 26 23 21 18 17 15 14 13 13 12 13 15 15 13 13 14 16 19 21 22 24 25 26
25 27 27 26 25 23 20 19 18 19 20 22 23 23 23 24 26 28 29 26 22 20 19 20 19 17 17 19 21 23 25 26 28 31 35 38 41 46 51 52 52 53 52 51 48 44 40 37 37 37 38 40 40 38 37 36 36 35 35 33 32 30 28 26 23 20 18 16 16 15 16 16 15 15 15 14 13 13 14 15 17 20 23 24 24
25 27 27 26 25 24 23 21 18 18 21 23 24 24 23 24 26 28 28 25 22 20 20 21 20 19 19 19 21 22 23 25 27 29 34 37 38 43 49 51 52 52 52 52 51 48 44 40 39 38 39 40 40 39 38 37 36 36 36 35 33 31 29 27 25 22 19 17 17 17 18 18 17 16 15 13 12 12 12 13 14 16 19 21 23
26 27 25 24 25 25 24 23 20 19 22 24 24 24 24 25 26 28 29 25 21 19 20 21 20 19 19 20 21 22 22 23 25 28 32 36 37 40 46 50 52 53 53 53 52 51 48 44 42 40 40 40 40 39 38 37 37 36 36 35 34 32 30 28 26 24 22 19 18 18 18 18 18 16 15 13 12 11 10 12 13 12 14 18 21
29 29 25 24 26 25 23 24 22 20 23 25 25 24 24 25 27 29 29 26 22 20 21 20 19 19 20 21 22 22 21 22 24 27 31 35 36 38 43 48 51 53 55 55 54 53 51 48 45 43 42 41 41 40 38 37 37 37 37 37 36 34 32 30 27 25 23 21 20 19 18 18 18 17 16 14 15 14 13 13 13 11 12 15 19
33 31 27 26 29 28 26 25 23 22 25 26 25 25 24 26 28 30 30 27 23 21 21 20 19 21 23 24 24 23 22 22 24 26 30 34 36 37 40 45 49 52 55 56 56 55 53 51 49 47 45 43 42 41 40 38 38 38 38 38 37 36 34 31 29 26 24 23 21 20 19 19 18 18 18 16 16 15 14 13 13 12 12 13 17
36 33 28 28 31 32 30 27 24 24 27 27 26 25 25 26 29 31 31 28 25 22 21 20 21 23 25 26 25 24 22 22 23 26 30 34 36 37 39 43 46 50 53 56 57 57 56 54 52 50 48 46 44 43 42 40 39 39 39 39 38 37 35 33 31 28 25 23 22 21 20 20 19 19 19 18 18 17 16 15 15 16 16 16 19
37 33 29 30 32 33 31 28 26 27 29 29 27 26 26 27 30 32 32 30 26 23 21 21 22 22 24 25 25 24 22 21 22 26 30 34 35 37 39 41 44 48 52 55 57 58 57 56 54 53 51 49 47 45 44 42 41 40 40 40 39 38 36 34 32 29 26 24 22 21 20 20 20 19 19 19 19 19 20 21 22 22 22 22 23
36 32 32 32 33 34 32 28 27 29 30 30 29 27 26 28 31 33 33 31 27 24 23 22 22 22 23 25 24 23 22 21 22 26 30 33 34 35 38 40 42 46 49 53 57 58 58 57 56 55 53 51 49 47 46 44 42 41 40 40 40 39 37 35 32 30 27 24 22 21 20 20 20 20 20 20 20 21 21 23 25 27 27 27 27
37 35 34 33 34 36 33 29 28 30 30 29 28 27 28 30 33 34 33 32 29 26 25 24 23 24 25 26 26 24 22 21 22 25 29 31 33 34 36 38 42 45 48 51 56 58 58 58 57 56 55 53 51 49 47 45 43 41 40 40 40 40 39 37 34 31 28 25 23 21 21 20 20 20 20 21 21 21 22 23 24 26 28 30 31
41 38 35 33 35 36 32 29 30 30 30 29 29 30 31 33 34 34 33 33 30 27 26 26 25 25 28 28 27 26 23 21 22 25 28 30 32 33 35 37 41 44 46 50 54 57 58 58 57 56 55 54 53 51 49 47 45 42 41 40 41 40 40 39 36 33 30 26 24 22 21 20 20 20 20 21 21 21 22 23 24 25 26 28 30
41 38 35 33 34 35 32 31 31 31 31 31 32 33 34 35 34 34 34 34 31 27 27 28 28 29 30 28 27 26 24 22 22 25 28 30 32 33 35 36 39 43 46 49 52 55 57 57 57 57 56 55 54 53 51 49 47 45 42 41 41 41 40 39 38 35 31 28 24 22 21 20 20 20 20 20 21 21 21 22 23 24 25 26 27
43 41 39 37 35 36 35 34 34 33 32 33 35 35 35 35 34 33 34 35 31 29 29 30 31 32 31 28 28 27 25 23 23 25 27 29 31 33 35 36 38 42 45 48 51 54 56 57 56 57 57 55 54 54 53 50 48 46 43 41 41 41 41 40 39 36 33 30 26 24 22 20 19 19 19 19 20 20 20 21 21 21 22 23 24
46 45 44 42 39 36 36 36 36 35 35 36 36 36 37 36 34 33 36 36 31 28 29 29 29 31 31 29 29 28 26 25 24 25 27 29 31 33 35 36 37 40 43 47 50 53 55 56 56 56 57 56 55 54 53 52 50 47 44 42 41 41 41 41 40 38 35 32 28 25 23 21 20 19 19 19 19 19 19 19 19 19 19 19 20
48 46 44 43 41 40 40 40 41 40 39 38 39 39 38 35 34 35 37 35 29 26 26 25 25 29 31 30 29 29 27 26 26 27 28 30 32 33 35 37 38 39 41 45 49 52 54 56 56 56 56 56 55 54 54 53 51 49 46 43 41 40 41 40 40 38 36 33 30 28 25 23 21 20 19 18 17 17 17 16 16 16 16 15 15
48 45 43 43 44 44 44 44 43 42 40 40 40 39 36 33 34 35 35 31 27 26 26 25 26 29 31 32 33 32 30 28 28 28 30 31 33 34 36 38 39 39 40 44 48 51 53 55 55 55 56 56 55 54 54 54 53 50 47 43 41 40 40 40 40 39 37 34 32 30 27 25 22 21 19 18 17 16 15 14 13 13 12 12 12
49 47 45 45 46 47 46 45 44 43 42 40 39 37 34 32 32 31 31 30 30 29 29 29 29 31 32 35 36 36 35 33 32 31 31 32 33 35 37 39 40 39 40 43 47 49 53 55 55 55 55 55 55 54 54 54 53 51 48 44 41 40 40 40 40 39 38 36 33 31 28 26 24 22 20 19 17 16 14 13 12 11 10 10 10
50 49 48 47 47 47 47 46 45 45 43 41 38 36 34 32 29 27 28 31 33 33 34 34 34 35 36 38 39 39 38 38 37 36 36 36 36 37 38 40 40 39 39 42 45 48 52 55 55 54 55 55 55 54 54 54 54 52 50 46 42 40 40 40 40 40 39 37 35 32 29 27 25 23 21 19 18 16 14 12 11 10 10 9 9
52 50 49 48 48 48 46 46 47 46 43 40 37 34 33 32 31 28 28 30 32 34 35 36 37 37 38 40 41 41 41 41 41 41 41 41 40 40 40 40 41 39 39 41 44 47 51 54 55 54 54 54 54 54 54 54 54 53 51 47 43 40 40 40 40 40 39 37 35 32 30 28 26 23 21 19 17 15 13 12 11 10 10 9 9
55 54 52 51 49 47 45 45 46 44 41 39 37 35 34 34 35 34 31 30 30 33 36 39 40 41 41 42 42 41 42 43 43 43 43 43 42 41 41 41 41 41 40 41 44 47 50 53 54 54 54 54 54 54 54 54 54 54 52 48 44 40 39 39 40 39 38 37 34 32 29 27 25 23 21 19 17 14 13 12 11 11 11 10 10
58 57 55 53 51 48 45 45 46 46 45 44 40 38 38 38 38 37 34 31 31 35 38 41 43 44 45 46 45 44 43 43 43 42 42 41 41 42 42 41 40 40 41 41 43 46 50 53 54 54 53 54 53 53 53 54 54 54 52 49 45 40 38 38 39 38 37 36 34 31 28 26 24 22 20 18 17 15 13 12 12 12 12 11 11
59 57 55 54 52 49 46 45 45 46 46 45 41 39 40 42 41 40 38 35 34 37 39 40 42 44 46 48 48 45 43 42 42 42 41 40 40 40 40 39 38 39 39 40 43 46 49 52 54 54 54 54 54 53 53 53 54 54 53 50 46 41 38 37 37 37 36 35 33 31 28 25 23 21 20 18 16 15 14 13 13 13 12 12 12
55 54 53 52 51 50 48 47 45 44 43 41 39 39 42 44 45 45 44 42 41 42 43 44 45 47 47 46 45 42 40 41 43 44 43 42 41 40 38 37 37 38 39 40 43 45 49 52 53 54 54 54 54 53 53 53 53 54 53 51 47 42 38 36 36 36 35 34 32 29 27 25 23 21 19 18 16 15 15 14 14 14 13 13 13
50 49 49 49 49 49 50 51 51 50 47 45 44 45 45 47 48 48 46 44 45 47 47 48 49 50 49 46 42 38 38 41 43 45 45 43 41 39 36 35 37 38 38 40 43 46 49 52 53 54 55 55 54 53 53 53 53 54 54 52 48 43 38 36 35 35 34 33 31 29 26 25 23 21 19 18 17 17 16 16 15 15 14 14 14
49 47 46 46 47 48 48 50 51 51 49 47 49 50 49 50 52 52 50 48 48 49 50 52 53 52 51 48 43 40 39 41 43 44 44 43 40 37 35 35 37 38 38 41 44 47 50 52 53 54 55 55 54 53 53 53 53 54 54 53 49 44 39 35 34 34 34 32 30 28 26 24 23 21 20 19 18 18 17 17 17 16 16 16 16
50 49 48 46 46 47 47 48 49 48 47 48 51 53 52 52 53 52 52 52 53 53 53 53 52 50 48 47 44 42 40 40 41 41 42 42 39 36 35 35 37 38 40 43 46 49 50 51 52 54 55 55 55 53 53 53 54 54 54 53 50 45 39 35 33 33 33 32 30 28 26 24 22 21 20 19 19 19 18 18 18 18 18 18 19
52 51 50 48 47 47 48 49 49 49 49 51 53 55 55 54 53 53 53 54 53 53 51 50 48 46 44 44 43 42 41 40 40 40 41 41 39 37 36 37 38 39 41 44 47 48 49 50 51 53 55 56 55 54 53 53 54 54 55 54 52 46 40 34 32 32 32 31 29 28 26 24 23 22 21 20 20 20 19 19 19 19 20 20 21
54 54 53 51 49 48 49 51 52 52 53 55 57 58 58 57 56 55 54 51 49 48 48 47 46 45 43 42 41 41 41 41 42 43 44 44 42 38 37 38 38 39 41 45 46 46 47 49 51 52 54 56 56 54 53 53 54 55 55 55 53 48 41 35 31 30 31 30 29 27 26 24 23 22 21 21 20 20 20 20 21 21 22 22 23
53 54 55 54 52 51 50 50 51 52 53 55 57 58 58 57 56 55 54 51 49 49 48 47 46 45 43 42 42 42 43 44 46 48 48 47 44 40 38 38 39 39 41 44 44 44 46 48 49 52 54 56 56 55 53 54 55 55 55 55 54 49 42 35 30 29 30 30 28 26 25 24 23 22 21 21 21 21 21 22 22 23 24 25 25
58 55 53 53 53 53 52 51 50 51 52 52 53 53 53 53 52 51 51 51 50 49 48 47 47 47 46 46 46 46 48 49 51 52 51 49 45 41 38 39 39 39 40 43 44 44 46 47 48 51 54 56 57 56 54 54 55 55 55 56 55 50 43 35 29 27 28 29 28 26 25 23 23 22 22 22 22 22 23 23 24 25 25 26 27
70 65 60 56 54 54 53 53 52 53 53 53 52 51 50 50 49 49 49 50 49 48 48 49 49 49 49 50 51 52 53 54 55 54 52 49 46 42 39 39 39 39 40 43 44 44 45 46 48 51 54 56 57 57 56 55 55 55 55 56 56 51 44 35 29 26 26 27 27 26 25 23 23 23 23 23 23 23 24 24 25 26 27 28 28
79 76 72 67 62 59 57 55 54 53 54 55 54 54 53 52 52 51 52 52 52 52 53 55 54 52 53 55 57 58 58 58 56 53 50 48 44 41 40 39 39 38 40 43 43 43 43 46 48 51 53 56 57 57 56 55 55 55 55 56 56 51 43 35 28 25 25 26 27 26 25 23 22 22 22 23 23 24 25 25 26 26 27 28 28
80 80 78 76 72 69 65 62 59 57 56 56 56 56 56 56 55 54 55 55 56 57 58 59 58 58 59 60 62 62 61 58 53 49 47 45 42 40 40 39 39 39 40 41 40 40 43 46 49 51 54 56 57 57 56 55 55 55 55 56 56 51 43 34 27 24 23 25 25 25 24 23 22 22 22 23 23 24 25 25 26 26 27 27 28
77 78 78 78 77 75 73 70 67 65 63 61 60 59 58 58 58 58 58 59 59 60 61 62 62 63 63 64 65 65 62 56 49 46 45 44 42 40 39 39 39 40 40 38 38 40 44 46 49 52 54 56 57 57 55 54 55 55 56 57 56 50 41 33 26 22 22 23 24 24 24 23 22 22 22 22 23 24 24 25 25 26 26 27 27
73 75 76 76 76 76 75 74 72 70 70 69 67 65 64 63 63 63 63 63 64 65 65 66 67 67 67 67 68 66 60 52 47 45 45 43 42 41 40 40 41 41 38 37 38 41 44 46 49 52 54 55 57 56 54 54 55 56 56 57 56 49 39 31 25 21 21 22 23 24 23 22 22 22 22 23 23 24 24 25 25 26 26 27 27
70 71 72 73 73 74 75 75 74 73 72 72 72 71 70 69 69 69 69 69 69 69 70 71 71 71 71 69 67 62 55 49 46 46 44 43 43 42 41 40 40 39 38 38 40 42 44 46 50 52 53 55 56 55 53 54 55 56 56 57 54 46 37 29 24 20 20 22 23 23 22 22 21 22 22 22 23 24 24 25 25 26 26 27 27
67 68 68 69 70 71 73 73 74 74 74 74 74 73 73 73 73 72 72 73 73 73 73 73 73 73 71 66 60 55 51 48 47 46 44 43 43 42 40 39 39 39 39 39 40 41 44 48 51 52 52 54 55 54 53 54 55 55 56 57 53 44 34 27 21 19 19 21 22 22 22 21 21 21 22 22 23 24 24 25 26 26 27 28 28
64 65 66 65 66 67 68 69 70 72 73 74 74 75 75 75 75 74 74 74 74 73 72 71 70 69 65 58 52 50 49 48 47 45 44 44 43 41 38 37 38 39 40 40 40 42 46 49 51 52 52 53 54 53 52 53 54 55 56 56 51 41 31 24 19 18 19 21 21 21 21 21 21 21 22 23 23 24 25 25 26 27 28 29 30
59 60 61 62 63 63 64 64 66 67 68 69 71 72 72 72 72 71 71 70 69 67 66 64 63 61 57 52 49 48 48 47 46 45 45 44 43 41 38 37 38 39 39 40 42 43 46 49 51 52 52 53 53 52 51 52 53 54 55 54 48 37 28 21 18 17 19 20 20 20 20 20 21 21 22 23 23 24 25 26 27 28 28 29 30
55 55 56 57 58 58 59 59 60 61 62 62 63 64 64 64 64 64 63 62 62 60 59 59 58 56 53 50 48 47 46 45 44 44 44 43 43 42 40 39 38 39 40 41 43 44 47 50 51 51 51 51 51 50 50 51 52 53 54 52 44 33 25 19 17 17 19 19 19 19 20 20 21 22 22 23 24 25 25 26 27 28 29 30 31
53 53 53 53 53 53 53 54 54 55 55 56 57 58 58 58 59 59 58 58 58 57 56 56 55 54 52 49 47 46 45 44 43 42 41 40 40 39 38 37 38 39 41 42 42 44 47 50 50 50 50 50 49 48 48 50 51 52 52 49 40 30 22 18 16 17 18 19 18 19 19 20 21 22 23 24 24 25 26 27 28 29 30 31 32
54 53 52 52 52 51 51 51 51 52 53 54 55 55 56 56 56 56 55 54 54 53 53 52 52 51 50 48 47 45 44 44 43 42 39 36 34 34 34 34 36 39 41 42 42 44 47 49 49 48 48 48 48 47 47 48 50 51 50 45 36 27 20 16 16 17 18 18 18 18 20 21 22 23 23 24 25 26 27 28 29 30 31 32 33
Wind_Direction
320 320 321 316 315 327 337 338 336 339 343 344 344 343 340 333 328 331 333 336 342 345 348 353 355 354 354 354 355 355 355 354 352 350 349 348 347 347 346 345 343 341 339 337 338 338 336 332 328 325 326 326 324 321 317 312 307 303 298 294 289 285 280 275 272 270 269 269 270 270 270 269 270 271 271 269 266 262 258 255 253 253 255 257 257
317 317 319 315 311 320 332 335 331 330 334 338 338 337 337 333 327 325 327 331 336 340 342 346 349 348 347 347 349 350 352 353 351 349 348 348 347 346 346 345 343 342 341 342 342 339 334 330 329 331 331 331 329 327 324 319 314 309 304 299 295 291 286 281 276 273 271 269 268 268 267 267 267 267 267 268 268 266 263 259 254 251 251 252 254
318 316 315 313 309 312 326 331 325 320 324 330 333 331 331 331 329 325 324 326 331 335 337 341 345 344 341 341 343 347 351 352 350 349 348 348 348 347 346 345 343 343 345 346 342 336 332 332 334 336 336 336 335 333 329 325 320 315 310 306 302 299 296 291 286 282 279 276 273 271 269 268 266 265 264 264 264 264 263 261 258 254 251 250 250
319 315 310 312 310 308 319 326 319 312 313 323 328 326 326 328 329 327 324 322 326 331 334 337 341 341 338 337 339 347 353 353 351 351 351 351 350 348 347 346 345 346 347 345 339 335 335 337 339 341 342 341 340 336 333 329 326 323 319 317 314 310 305 300 295 291 287 284 281 278 275 272 269 266 264 263 262 261 261 260 259 257 255 252 250
315 314 306 309 311 309 314 319 315 306 305 314 322 322 322 325 327 328 326 323 323 327 330 333 336 338 335 333 339 348 353 353 353 354 355 354 353 350 349 348 347 348 347 343 340 339 340 342 344 347 347 345 342 339 336 334 333 331 328 325 320 314 308 302 297 294 291 287 284 282 281 278 274 269 265 262 262 261 261 260 259 258 256 255 253
308 313 306 304 310 310 310 311 308 302 297 305 316 318 318 322 325 327 328 325 322 324 326 328 330 332 332 331 339 348 352 353 355 357 358 357 356 353 352 350 349 350 348 345 343 344 345 347 349 351 350 348 344 341 340 340 339 337 333 329 324 317 310 305 301 297 292 288 285 284 284 281 276 269 263 259 258 258 259 259 258 256 254 252 250
301 310 304 300 303 305 303 303 302 296 290 297 311 315 315 318 322 326 329 326 322 321 322 323 325 327 327 331 341 348 350 353 357 360 0 359 358 357 355 352 352 352 350 348 347 347 349 352 354 354 354 351 347 345 345 344 342 340 337 334 330 323 317 312 307 302 296 290 286 284 279 273 270 264 257 253 251 252 253 253 252 251 250 250 247
295 304 302 297 297 298 296 299 298 291 286 294 306 311 311 315 320 325 329 327 321 318 318 319 321 322 324 333 343 346 347 352 358 360 0 0 360 359 357 355 354 354 353 351 350 350 352 355 358 359 358 355 352 350 348 346 344 343 341 341 338 334 328 321 315 309 304 298 294 289 276 267 266 263 257 252 248 247 246 245 246 247 248 247 245
289 297 299 296 294 292 289 293 295 287 283 291 302 307 309 313 319 325 328 326 319 314 314 316 318 320 324 334 342 342 342 350 357 358 358 359 0 0 358 357 356 355 355 354 351 351 353 357 1 3 1 359 356 353 352 350 348 347 347 346 345 343 338 330 322 316 312 308 303 297 287 278 277 273 268 263 256 249 243 240 240 243 244 242 240
285 290 294 294 294 291 284 285 289 285 281 288 299 305 307 311 318 324 326 323 316 310 308 312 317 322 327 334 337 337 338 347 354 355 355 357 360 1 0 359 358 357 357 356 353 351 353 357 0 2 2 0 358 356 355 354 352 352 352 351 348 346 343 337 329 320 314 310 304 297 291 287 285 282 278 274 266 258 249 242 237 234 234 236 235
281 285 288 291 293 288 280 279 284 283 280 286 297 303 305 309 315 322 324 320 313 307 306 311 318 324 328 330 331 331 335 344 351 352 352 354 358 1 2 1 360 359 359 357 355 354 353 355 357 359 360 359 358 357 358 357 357 357 356 354 351 348 344 340 335 327 318 309 301 294 290 286 285 284 280 274 267 264 260 252 242 234 232 233 233
277 279 283 288 288 279 272 272 277 282 281 284 295 301 302 305 312 318 320 318 313 307 306 310 315 321 325 326 326 327 332 342 349 350 349 351 355 0 3 3 2 1 0 359 358 357 356 355 355 355 356 357 356 357 359 360 1 0 360 357 354 350 346 341 337 333 326 317 307 300 294 290 287 284 278 270 264 264 263 257 246 235 233 234 232
271 276 281 286 281 270 264 265 268 276 279 282 291 298 298 301 308 314 316 314 311 305 303 307 312 318 323 324 323 324 328 338 346 348 347 348 352 358 2 4 4 3 2 1 0 359 358 357 355 354 354 355 355 355 357 0 2 2 1 359 356 352 348 343 339 335 331 326 318 310 303 298 293 287 279 267 257 253 254 256 251 235 228 229 229
268 274 278 278 272 265 263 265 266 272 276 279 288 295 296 298 304 310 313 311 307 300 298 302 309 316 320 322 322 322 325 334 341 344 345 345 348 353 358 1 2 3 3 2 1 0 360 358 357 355 353 353 353 353 355 359 1 2 1 0 358 355 351 346 342 338 334 331 326 320 313 306 299 291 282 269 259 254 252 256 259 246 228 225 225
265 273 274 270 267 266 267 266 265 269 273 278 287 293 293 295 300 306 310 310 305 296 293 300 309 314 318 320 322 321 321 329 337 340 342 342 344 348 353 356 358 360 1 2 1 0 360 359 358 356 354 353 352 352 353 355 359 1 2 1 360 357 353 349 344 340 336 333 329 325 320 313 304 294 286 274 263 258 253 252 257 252 237 228 225
265 270 271 268 266 265 267 265 262 265 271 278 287 290 288 290 297 304 307 307 302 294 291 299 308 313 316 318 319 318 317 324 332 337 338 338 340 344 348 351 354 356 358 0 1 0 359 359 358 357 355 353 352 351 351 353 356 359 0 0 360 358 354 350 346 342 338 334 330 327 322 316 309 300 290 279 267 258 248 239 240 243 242 240 237
265 266 265 266 265 263 263 261 260 264 272 279 284 284 284 288 296 303 304 302 299 293 290 296 304 310 316 319 317 314 313 319 328 333 335 336 337 341 345 347 351 355 356 358 359 359 359 358 358 357 356 354 353 352 351 351 353 356 358 358 358 358 356 352 348 344 339 335 331 328 323 318 312 305 296 286 274 263 251 240 236 238 240 242 244
260 261 262 264 264 261 258 258 261 266 272 278 280 279 282 289 296 301 302 299 296 291 289 294 299 305 315 321 319 311 309 315 323 329 332 333 335 339 343 346 349 352 354 356 357 357 357 357 357 357 356 354 353 352 351 350 350 352 354 355 356 357 356 354 351 346 342 338 334 330 326 321 316 309 302 294 283 272 262 251 244 241 239 240 242
254 256 259 262 261 259 258 259 263 266 269 275 279 280 284 290 295 299 300 297 293 289 288 292 295 299 309 316 316 310 307 310 318 325 328 330 332 337 343 345 348 351 352 353 354 355 356 356 355 355 355 354 352 351 351 350 349 349 351 352 354 355 355 355 353 349 345 341 338 334 330 325 320 314 307 300 292 283 274 266 258 251 245 243 244
253 254 256 259 259 259 260 261 261 263 268 275 279 282 286 290 293 297 299 297 291 287 288 290 290 293 302 308 309 308 306 308 315 321 323 326 329 333 339 343 347 349 351 352 352 353 354 354 354 353 354 353 352 351 350 350 349 348 349 350 352 354 354 355 353 351 348 345 341 337 334 329 324 318 312 305 298 290 283 276 270 264 259 255 253
251 251 252 254 258 261 262 258 256 260 266 272 276 280 284 287 290 294 297 295 290 285 286 287 286 292 300 303 303 306 307 307 311 315 317 320 324 328 334 340 344 346 348 351 352 352 352 352 352 351 352 352 351 350 350 349 349 348 349 350 351 352 353 354 354 352 350 347 345 341 338 333 328 322 316 309 302 295 288 282 276 271 268 265 264
248 250 252 253 258 263 261 254 254 258 263 268 273 277 280 284 288 293 296 294 289 283 282 283 285 292 300 300 298 303 307 306 306 310 314 318 321 326 331 337 341 342 343 347 350 351 350 350 350 350 350 350 350 350 349 349 348 348 348 349 350 351 352 353 353 352 351 349 347 345 342 337 332 326 320 314 306 299 293 287 283 279 275 274 273
249 252 254 253 254 256 252 249 252 256 260 267 273 276 279 283 288 292 293 292 289 285 284 286 288 293 298 298 296 298 302 304 302 303 310 316 321 326 330 333 338 341 341 343 346 348 349 349 348 348 348 349 349 349 348 348 348 348 348 348 350 351 352 353 353 352 352 350 349 347 345 342 338 333 326 319 311 304 299 294 290 288 286 285 284
252 253 253 252 251 250 247 247 251 256 262 268 273 276 278 282 288 290 289 288 287 285 286 288 289 291 295 299 299 298 298 301 301 300 305 313 320 325 327 329 334 340 342 341 343 345 347 347 347 346 347 348 348 348 347 347 347 347 347 348 349 351 352 353 353 352 352 351 350 349 348 346 343 338 332 324 316 309 303 300 297 296 296 295 294
252 251 250 251 252 252 252 252 254 258 265 270 273 274 276 281 285 285 284 285 284 283 285 286 285 286 291 297 300 300 297 297 301 303 304 309 317 322 324 324 328 335 340 340 340 342 345 346 345 345 345 346 347 347 347 347 347 347 347 347 348 350 352 352 353 352 353 353 352 350 348 347 345 341 336 329 323 317 312 309 307 306 306 305 302
248 248 249 251 253 254 255 256 258 262 267 269 269 272 274 277 280 280 280 282 283 283 286 288 285 284 289 295 300 301 299 296 297 303 306 310 316 319 320 321 324 330 337 337 337 340 343 344 344 344 344 344 346 347 347 347 347 347 347 347 348 350 352 353 353 353 353 353 353 351 349 348 347 344 340 335 330 326 323 322 321 321 319 317 313
246 247 249 251 253 254 256 260 263 264 265 265 266 270 273 273 276 279 280 280 283 287 288 288 287 286 289 295 299 300 300 298 296 298 302 307 313 317 318 319 320 326 332 334 335 337 340 342 343 342 342 343 345 346 347 347 347 347 347 347 347 349 352 353 354 354 354 354 353 352 350 349 349 347 344 339 336 334 332 332 332 331 329 328 327
245 246 248 250 252 255 258 262 263 262 262 264 266 270 270 269 272 275 273 272 278 284 284 284 287 288 289 294 297 296 298 300 300 298 299 301 306 312 316 316 316 321 327 331 332 334 337 340 341 341 341 341 343 345 347 347 347 347 347 347 347 349 352 353 354 355 355 354 354 353 351 351 351 350 347 343 340 339 339 339 340 340 340 341 344
245 246 248 250 253 256 258 260 259 258 260 263 267 269 268 267 270 270 266 265 271 275 273 274 281 285 287 291 294 293 294 297 300 302 302 301 303 307 310 310 311 315 321 326 329 331 335 338 340 339 339 340 342 344 346 346 347 347 347 347 347 348 351 354 354 355 355 355 354 354 354 354 354 353 350 346 344 343 345 347 349 351 354 355 358
247 248 249 250 252 254 255 256 257 258 260 262 264 266 266 265 266 265 264 265 271 272 272 275 279 281 283 285 288 290 293 296 299 303 306 306 305 305 305 305 307 311 316 321 325 328 332 336 338 337 337 339 340 342 344 345 346 347 347 348 347 347 350 353 355 356 356 355 355 356 357 358 359 357 355 352 350 350 354 358 0 2 3 5 7
249 249 249 250 250 248 249 253 256 257 257 256 256 259 263 265 265 263 262 265 271 273 275 279 280 280 281 284 285 287 291 295 299 302 305 307 307 305 303 302 306 310 314 318 322 324 329 334 336 336 336 337 339 341 342 344 345 346 347 348 347 347 348 352 355 356 356 356 357 358 359 1 3 3 2 0 359 1 4 6 8 9 9 10 9
250 249 248 248 247 244 244 248 253 254 253 252 253 258 264 268 268 266 264 265 268 270 272 274 276 277 281 285 286 287 290 295 299 302 304 307 308 305 300 299 304 308 312 315 318 322 326 332 335 335 334 335 337 339 341 342 344 346 347 347 347 347 347 351 354 356 356 357 358 359 1 4 7 9 9 7 6 8 11 12 14 13 12 10 6
251 250 247 246 245 243 242 245 249 252 254 257 260 262 264 266 267 267 266 265 266 268 270 270 271 275 280 284 286 287 291 296 299 301 304 307 307 302 297 296 301 305 308 312 316 319 323 329 333 333 332 333 335 337 339 340 342 344 346 347 347 347 346 349 352 355 356 357 358 360 3 6 9 12 12 12 12 13 14 15 15 14 11 7 3
251 250 249 247 246 245 245 245 248 250 252 256 259 260 260 261 263 266 267 267 267 269 271 271 273 277 280 282 283 286 291 295 297 300 304 306 305 299 293 293 297 301 305 309 313 316 320 327 331 331 330 331 333 335 338 339 340 343 345 346 347 346 345 347 350 353 355 356 358 360 3 6 10 12 13 13 13 14 15 14 13 11 7 2 358
250 250 250 250 249 249 249 251 252 253 252 252 254 257 257 259 261 265 268 269 270 272 274 274 276 278 279 280 281 285 289 293 295 298 302 304 301 294 290 290 294 298 302 306 309 313 318 325 329 329 329 329 331 333 336 338 339 341 343 345 346 346 344 345 347 350 352 354 356 359 1 5 8 10 11 12 12 11 11 10 7 3 359 355 351
247 248 250 251 252 252 252 252 253 254 255 255 256 258 260 261 263 265 267 269 271 273 274 276 277 278 279 281 283 285 288 291 293 296 301 303 299 291 287 289 292 296 300 303 306 311 317 323 327 327 328 329 329 331 334 336 337 338 341 343 344 344 343 342 344 347 349 351 353 356 359 2 5 7 8 9 8 8 6 4 1 357 353 350 347
244 246 247 250 252 253 254 253 253 254 256 257 259 261 262 264 265 263 264 267 270 271 272 274 275 276 280 283 285 286 288 290 291 292 296 299 297 290 285 287 291 294 298 301 304 310 317 322 325 326 328 329 329 329 332 335 336 337 339 341 342 342 341 340 341 344 347 348 349 352 355 357 360 2 4 5 5 3 2 359 356 354 351 348 345
242 244 246 248 250 252 254 255 256 257 258 258 260 261 262 263 264 263 262 264 267 269 271 274 275 276 279 283 285 285 287 290 291 291 292 294 293 287 282 284 288 293 297 299 303 310 317 320 323 326 328 328 328 329 331 333 334 335 337 339 340 340 339 337 338 341 343 344 346 347 350 352 355 357 358 359 359 359 357 355 353 350 347 344 341
239 241 244 246 249 251 254 256 257 258 259 259 260 261 262 262 263 264 264 265 268 269 271 274 276 276 278 282 284 286 288 290 292 292 291 290 289 284 280 281 286 290 294 297 301 309 315 318 322 326 327 327 328 328 329 331 332 333 335 337 338 338 336 334 334 337 340 341 341 343 345 347 349 351 353 353 353 353 352 350 348 345 343 341 339
241 242 242 243 245 248 252 255 257 259 261 262 261 262 263 263 263 265 267 269 271 271 273 276 277 277 279 283 285 287 289 291 292 291 289 286 284 280 276 278 284 288 292 295 301 307 313 316 321 324 325 326 326 327 328 330 331 331 333 335 336 336 334 331 330 333 336 338 338 339 341 342 344 346 347 347 347 347 346 345 343 342 340 339 337
244 245 244 244 244 245 247 250 253 256 260 263 263 264 265 266 267 268 269 271 273 273 275 277 279 278 281 284 286 287 290 291 291 288 285 282 279 275 273 276 282 287 291 296 301 306 311 315 319 322 323 324 325 326 327 328 330 330 332 333 334 334 332 329 327 329 333 335 335 336 337 339 340 341 342 342 342 342 341 341 340 340 339 338 338
243 245 246 247 247 247 247 248 249 251 254 257 259 261 263 265 266 267 267 269 270 270 273 276 277 279 281 284 285 287 289 289 287 284 281 278 275 272 271 274 279 285 290 296 300 305 310 314 317 319 321 322 323 325 326 328 329 329 330 332 333 332 329 326 324 325 329 332 333 333 334 336 337 338 338 338 338 338 339 339 339 340 341 341 341
242 244 245 247 248 249 250 250 250 251 252 253 254 256 257 260 261 263 264 265 267 269 272 274 276 278 281 283 284 287 288 286 282 279 277 274 271 269 269 272 277 283 289 294 299 304 309 313 315 317 319 321 322 324 325 326 327 328 329 331 332 330 327 324 321 322 325 328 330 331 332 333 335 336 336 337 337 337 338 339 340 342 343 344 344
242 244 245 246 248 249 250 251 252 252 254 255 256 256 257 258 260 263 265 267 269 272 274 276 278 279 281 282 284 285 285 282 278 277 274 271 269 267 267 270 276 282 287 292 297 302 307 310 313 315 317 319 321 323 324 325 325 326 328 330 331 329 325 321 318 319 322 326 328 329 330 331 333 334 335 335 336 337 338 340 342 344 345 346 346
243 244 245 246 247 248 250 252 253 254 255 257 258 259 260 262 263 266 268 270 272 274 275 277 278 278 279 280 282 282 280 277 275 274 271 269 268 267 267 271 277 281 285 290 295 301 305 308 310 313 316 318 320 322 323 324 324 325 327 329 330 328 323 318 315 316 320 323 326 328 328 329 330 332 333 334 335 337 339 340 342 344 345 346 346
243 245 246 246 247 248 250 251 252 254 256 257 259 260 262 263 265 267 268 270 271 273 274 275 276 276 276 278 278 277 274 273 272 271 268 266 266 266 269 274 280 283 284 288 293 299 303 305 307 311 315 317 319 321 322 323 323 324 326 329 329 326 321 315 312 313 317 322 325 326 326 327 328 330 332 333 335 337 338 340 341 343 344 344 345
244 245 246 247 248 249 250 251 252 254 255 257 258 260 261 262 264 265 267 268 269 270 271 272 273 274 275 275 274 273 271 270 269 267 265 264 264 265 269 277 283 283 283 287 292 298 301 303 305 309 314 316 318 320 321 321 322 324 326 328 328 324 318 313 310 311 316 320 324 325 326 325 327 329 331 332 334 336 338 339 340 342 343 343 343
245 246 247 248 248 249 251 252 253 254 255 256 258 259 260 262 263 264 265 266 267 268 268 269 270 270 271 271 271 270 269 267 265 264 263 262 262 262 267 276 283 284 284 286 291 295 298 300 303 308 312 315 317 318 320 320 321 323 326 327 326 322 315 310 308 310 315 320 323 325 324 324 326 329 330 331 334 335 336 338 339 341 342 343 343
247 247 247 248 249 250 251 252 253 254 255 256 257 259 260 261 262 263 263 264 265 265 266 266 267 267 268 268 267 267 266 264 262 262 261 261 261 261 266 274 281 283 283 286 290 294 296 298 301 307 311 314 315 317 318 319 320 323 325 326 324 318 311 307 306 309 315 320 323 324 324 324 326 328 329 330 332 334 335 337 338 339 341 342 343
247 248 248 248 249 250 251 252 253 254 255 256 258 259 260 261 262 262 263 263 263 263 263 264 264 265 265 265 264 264 263 261 259 259 259 261 262 265 269 275 279 280 282 285 290 293 294 296 301 306 310 312 314 316 317 318 320 322 325 325 322 314 307 304 305 309 316 321 323 323 323 323 325 327 328 329 331 333 334 336 337 339 340 342 342
246 247 248 249 250 251 252 253 254 256 257 259 260 261 262 263 263 263 262 262 261 261 261 261 262 262 263 263 262 261 261 259 258 256 256 258 261 265 269 273 277 279 281 285 288 290 292 296 301 306 309 312 313 315 316 317 319 322 324 324 319 311 302 300 304 309 315 319 321 322 322 323 324 326 327 328 330 332 333 334 336 338 340 341 342
Height
11008 11008 11008 11008 11007 11007 11006 11006 11005 11004 11003 11002 11001 10999 10998 10996 10994 10993 10992 10990 10988 10987 10985 10984 10982 10981 10979 10977 10974 10973 10971 10968 10966 10963 10960 10957 10953 10949 10945 10941 10937 10932 10928 10923 10918 10913 10909 10904 10899 10894 10890 10886 10882 10879 10875 10872 10869 10866 10864 10862 10860 10858 10857 10856 10854 10853 10853 10852 10851 10850 10852 10851 10851 10851 10851 10850 10850 10851 10853 10855 10858 10860 10863 10866 10869
11008 11008 11007 11007 11007 11006 11005 11005 11004 11004 11003 11001 11000 10999 10997 10996 10994 10993 10991 10990 10988 10987 10985 10984 10982 10980 10978 10976 10974 10972 10970 10968 10965 10963 10959 10955 10951 10947 10943 10938 10934 10929 10924 10919 10914 10909 10905 10899 10894 10890 10886 10882 10879 10875 10872 10868 10865 10862 10859 10857 10855 10853 10851 10850 10849 10847 10847 10847 10845 10844 10844 10844 10843 10844 10844 10843 10843 10845 10846 10847 10850 10854 10857 10859 10862
11007 11007 11007 11006 11006 11005 11005 11004 11004 11003 11002 11001 10999 10998 10997 10995 10993 10992 10990 10989 10988 10986 10985 10983 10981 10980 10978 10976 10974 10972 10970 10967 10965 10962 10958 10954 10949 10945 10940 10936 10931 10926 10921 10915 10911 10906 10901 10895 10891 10887 10883 10879 10876 10872 10868 10865 10861 10858 10856 10853 10851 10848 10846 10845 10843 10842 10841 10840 10839 10838 10837 10837 10837 10837 10837 10837 10837 10838 10839 10840 10843 10846 10849 10852 10854
11006 11006 11006 11005 11005 11004 11004 11003 11003 11002 11001 11000 10998 10997 10996 10994 10993 10991 10989 10988 10987 10986 10984 10982 10981 10979 10977 10975 10973 10972 10970 10967 10965 10961 10957 10953 10948 10943 10938 10934 10929 10923 10918 10913 10908 10902 10897 10892 10888 10884 10880 10876 10873 10869 10866 10862 10858 10855 10852 10849 10846 10844 10842 10840 10838 10837 10836 10835 10833 10832 10831 10831 10831 10831 10831 10831 10832 10832 10833 10834 10836 10839 10841 10844 10846
11005 11005 11005 11004 11003 11003 11003 11002 11001 11001 10999 10998 10997 10996 10995 10993 10992 10990 10988 10987 10986 10985 10983 10981 10980 10978 10976 10974 10973 10971 10969 10967 10964 10960 10956 10951 10947 10942 10937 10932 10926 10921 10915 10910 10905 10899 10894 10890 10886 10882 10878 10875 10871 10867 10863 10859 10855 10852 10849 10846 10843 10841 10838 10837 10835 10833 10832 10830 10828 10828 10827 10827 10827 10827 10826 10826 10827 10828 10828 10829 10831 10833 10834 10837 10840
11003 11004 11003 11003 11002 11002 11001 11001 11000 10999 10998 10997 10996 10995 10994 10992 10991 10989 10988 10986 10985 10983 10982 10980 10978 10977 10975 10973 10972 10970 10968 10966 10963 10959 10955 10951 10946 10941 10935 10930 10924 10919 10913 10908 10902 10897 10893 10889 10885 10881 10877 10874 10870 10866 10861 10857 10854 10850 10846 10843 10840 10838 10836 10834 10832 10830 10828 10826 10825 10825 10824 10823 10823 10822 10822 10822 10822 10823 10824 10825 10827 10827 10827 10829 10833
11001 11002 11002 11001 11001 11000 11000 10999 10998 10997 10996 10995 10994 10993 10992 10991 10989 10988 10986 10985 10983 10982 10981 10979 10977 10975 10974 10972 10971 10969 10967 10965 10962 10958 10954 10950 10945 10940 10934 10929 10923 10917 10912 10906 10901 10897 10892 10888 10884 10880 10876 10873 10869 10864 10860 10856 10852 10849 10845 10841 10838 10835 10833 10831 10829 10827 10825 10823 10822 10822 10821 10818 10817 10817 10818 10818 10818 10819 10819 10821 10822 10821 10821 10823 10826
10999 10999 11000 11000 10999 10998 10998 10997 10996 10995 10994 10993 10993 10992 10991 10990 10988 10987 10985 10983 10981 10980 10979 10977 10976 10974 10972 10971 10970 10968 10966 10964 10961 10957 10953 10949 10944 10939 10934 10928 10922 10917 10911 10906 10901 10897 10892 10888 10884 10879 10876 10872 10868 10863 10858 10854 10851 10847 10843 10839 10836 10833 10831 10829 10827 10824 10822 10821 10820 10819 10818 10816 10814 10814 10815 10815 10815 10815 10816 10817 10817 10817 10818 10819 10821
10996 10997 10998 10997 10997 10996 10996 10995 10995 10993 10992 10991 10991 10990 10989 10988 10987 10985 10984 10982 10980 10978 10977 10976 10974 10973 10971 10970 10969 10967 10965 10963 10959 10956 10952 10948 10944 10939 10934 10928 10922 10916 10911 10906 10901 10897 10892 10887 10883 10879 10876 10872 10867 10862 10857 10853 10849 10845 10841 10837 10834 10831 10829 10827 10825 10822 10820 10818 10817 10817 10816 10815 10814 10813 10813 10812 10812 10812 10812 10812 10813 10814 10814 10815 10816
10993 10994 10995 10995 10994 10994 10994 10993 10992 10991 10989 10989 10989 10988 10987 10986 10985 10984 10982 10980 10978 10977 10976 10974 10973 10971 10970 10969 10967 10965 10964 10961 10958 10955 10951 10947 10943 10939 10933 10927 10922 10916 10911 10906 10902 10897 10892 10887 10883 10879 10876 10872 10867 10862 10857 10852 10848 10843 10839 10835 10832 10830 10828 10826 10824 10821 10819 10816 10815 10815 10814 10814 10813 10812 10811 10810 10809 10809 10809 10809 10809 10810 10810 10811 10812
10990 10991 10992 10993 10992 10992 10991 10991 10990 10988 10987 10986 10986 10986 10985 10985 10984 10982 10980 10978 10977 10975 10974 10973 10971 10970 10968 10967 10965 10963 10962 10959 10956 10953 10950 10946 10942 10938 10933 10927 10922 10916 10911 10906 10902 10897 10892 10887 10883 10879 10875 10871 10866 10861 10856 10851 10847 10842 10838 10834 10831 10828 10826 10824 10822 10820 10818 10815 10814 10812 10812 10811 10810 10810 10809 10808 10807 10806 10806 10807 10807 10807 10806 10807 10808
10987 10989 10990 10990 10990 10989 10988 10987 10987 10986 10984 10984 10984 10984 10984 10983 10982 10980 10979 10977 10975 10974 10972 10971 10969 10968 10966 10964 10963 10961 10959 10957 10954 10951 10948 10945 10941 10937 10932 10927 10922 10916 10911 10907 10902 10896 10892 10887 10883 10878 10875 10871 10866 10862 10856 10851 10846 10842 10838 10834 10830 10827 10825 10822 10820 10818 10816 10814 10812 10811 10809 10808 10807 10807 10807 10806 10804 10804 10803 10803 10804 10804 10804 10805 10805
10985 10986 10987 10988 10987 10986 10985 10984 10984 10983 10982 10981 10982 10982 10982 10981 10980 10978 10977 10975 10973 10972 10970 10969 10967 10965 10964 10962 10961 10959 10957 10955 10952 10949 10946 10943 10940 10935 10931 10926 10922 10917 10912 10907 10902 10896 10891 10886 10882 10878 10874 10870 10866 10861 10857 10851 10846 10842 10838 10834 10830 10827 10824 10821 10818 10816 10814 10812 10810 10809 10807 10806 10805 10804 10804 10803 10802 10801 10800 10800 10800 10802 10802 10802 10802
10982 10983 10984 10985 10984 10983 10981 10981 10981 10981 10980 10979 10980 10980 10980 10979 10977 10976 10975 10973 10971 10970 10968 10966 10965 10963 10962 10960 10958 10957 10955 10953 10950 10948 10945 10942 10938 10934 10930 10926 10921 10917 10912 10907 10902 10896 10891 10886 10882 10877 10873 10869 10865 10861 10856 10851 10846 10841 10837 10833 10829 10825 10822 10819 10816 10814 10812 10809 10808 10806 10805 10803 10803 10802 10801 10801 10800 10799 10798 10797 10798 10799 10799 10798 10798
10978 10980 10981 10982 10981 10980 10979 10979 10979 10978 10977 10977 10978 10978 10977 10976 10975 10974 10973 10971 10969 10967 10966 10965 10963 10961 10960 10958 10956 10955 10953 10951 10948 10946 10943 10940 10936 10933 10929 10925 10921 10916 10912 10907 10901 10896 10891 10886 10881 10876 10872 10868 10863 10859 10855 10850 10845 10841 10836 10832 10828 10824 10821 10818 10815 10812 10809 10807 10805 10803 10802 10801 10800 10799 10799 10798 10797 10796 10795 10795 10795 10795 10795 10795 10795
10974 10976 10977 10978 10978 10977 10976 10976 10976 10975 10975 10975 10976 10976 10974 10973 10973 10972 10971 10969 10967 10965 10964 10963 10961 10959 10957 10956 10954 10953 10951 10949 10946 10944 10941 10938 10935 10931 10928 10924 10920 10915 10911 10906 10901 10896 10891 10885 10881 10876 10871 10867 10862 10858 10853 10848 10844 10839 10835 10831 10827 10823 10820 10817 10813 10811 10808 10805 10803 10801 10799 10798 10797 10797 10796 10796 10795 10794 10793 10792 10792 10792 10791 10791 10791
10970 10972 10974 10974 10975 10974 10973 10973 10973 10972 10972 10973 10974 10973 10971 10970 10970 10970 10968 10966 10965 10963 10962 10961 10959 10957 10955 10953 10952 10950 10948 10946 10944 10942 10939 10936 10933 10930 10926 10923 10919 10914 10910 10905 10901 10896 10890 10885 10880 10875 10871 10866 10861 10857 10852 10847 10843 10838 10834 10830 10826 10823 10819 10815 10812 10809 10806 10803 10801 10799 10797 10795 10794 10794 10793 10793 10792 10791 10790 10789 10789 10789 10788 10787 10787
10967 10968 10970 10971 10971 10971 10970 10971 10970 10970 10970 10971 10970 10970 10969 10968 10968 10967 10965 10964 10962 10961 10960 10959 10957 10955 10953 10951 10949 10947 10946 10944 10942 10939 10937 10934 10931 10928 10925 10921 10917 10913 10909 10904 10900 10895 10890 10885 10880 10875 10870 10865 10861 10856 10851 10847 10842 10838 10834 10830 10826 10821 10818 10814 10811 10807 10804 10801 10799 10796 10794 10792 10791 10790 10790 10789 10789 10788 10787 10786 10785 10785 10784 10784 10784
10963 10965 10966 10967 10968 10968 10968 10968 10968 10967 10967 10968 10967 10967 10966 10966 10965 10964 10963 10961 10959 10958 10957 10956 10954 10952 10951 10949 10947 10945 10943 10941 10939 10937 10934 10932 10929 10926 10923 10919 10915 10912 10908 10903 10899 10894 10890 10884 10879 10874 10870 10865 10860 10856 10851 10846 10842 10837 10833 10829 10824 10820 10816 10813 10809 10806 10802 10799 10796 10794 10791 10790 10788 10787 10786 10786 10785 10784 10783 10782 10781 10781 10781 10780 10780
10959 10961 10962 10963 10964 10965 10966 10965 10965 10965 10964 10964 10964 10964 10964 10963 10962 10961 10960 10957 10956 10955 10954 10953 10951 10950 10948 10947 10945 10942 10940 10939 10937 10934 10932 10930 10927 10924 10921 10917 10914 10910 10907 10903 10898 10894 10889 10884 10879 10874 10869 10864 10860 10855 10850 10845 10841 10836 10832 10827 10823 10819 10815 10811 10807 10804 10801 10797 10794 10792 10789 10787 10785 10784 10783 10782 10781 10780 10779 10778 10777 10777 10776 10776 10775
10955 10957 10959 10960 10962 10963 10963 10962 10961 10961 10961 10961 10962 10961 10961 10960 10959 10958 10957 10955 10953 10952 10951 10950 10948 10947 10945 10944 10942 10940 10938 10936 10934 10932 10929 10927 10925 10922 10919 10915 10912 10909 10906 10902 10898 10893 10888 10883 10878 10874 10869 10864 10859 10854 10849 10844 10839 10835 10830 10826 10822 10817 10813 10810 10806 10802 10799 10796 10793 10790 10787 10785 10783 10781 10780 10779 10778 10777 10775 10774 10773 10772 10772 10771 10771
10950 10952 10955 10957 10959 10959 10958 10958 10958 10957 10957 10958 10958 10958 10958 10957 10956 10956 10954 10952 10950 10949 10948 10946 10944 10943 10941 10940 10939 10937 10935 10933 10931 10929 10927 10925 10922 10920 10917 10914 10911 10908 10905 10901 10897 10893 10888 10883 10878 10873 10868 10864 10859 10854 10848 10843 10839 10834 10829 10825 10821 10816 10812 10808 10804 10801 10798 10794 10791 10788 10785 10782 10780 10779 10777 10776 10774 10773 10772 10771 10770 10769 10768 10767 10767
10945 10948 10951 10953 10955 10955 10954 10953 10953 10953 10954 10954 10955 10955 10954 10954 10954 10953 10951 10949 10947 10946 10943 10941 10940 10938 10938 10937 10936 10934 10933 10930 10928 10926 10924 10922 10920 10917 10915 10912 10909 10906 10903 10900 10896 10892 10888 10883 10878 10873 10868 10863 10858 10853 10848 10843 10838 10833 10829 10824 10820 10816 10811 10807 10803 10799 10796 10793 10789 10786 10783 10781 10778 10776 10775 10773 10772 10770 10769 10768 10766 10765 10765 10764 10764
10941 10944 10946 10949 10950 10949 10948 10948 10949 10949 10951 10951 10951 10951 10951 10951 10951 10950 10947 10945 10945 10943 10940 10938 10936 10935 10934 10934 10933 10931 10930 10928 10925 10923 10921 10919 10917 10915 10912 10910 10908 10905 10901 10898 10895 10891 10887 10882 10877 10872 10868 10863 10858 10853 10847 10842 10837 10832 10828 10823 10819 10815 10811 10806 10802 10798 10795 10791 10788 10784 10781 10779 10777 10775 10773 10771 10770 10768 10767 10766 10764 10763 10763 10762 10761
10937 10939 10942 10944 10944 10944 10944 10945 10945 10946 10947 10947 10947 10947 10948 10948 10947 10945 10943 10943 10942 10940 10939 10937 10935 10933 10931 10931 10930 10929 10927 10925 10923 10921 10919 10917 10915 10913 10910 10908 10905 10903 10900 10896 10893 10890 10885 10881 10876 10871 10867 10862 10857 10852 10847 10842 10836 10832 10827 10822 10818 10814 10810 10805 10801 10797 10793 10790 10786 10783 10780 10777 10775 10773 10771 10770 10768 10767 10765 10764 10763 10762 10761 10760 10759
10931 10935 10938 10939 10939 10939 10940 10941 10942 10943 10943 10943 10943 10944 10945 10945 10944 10942 10941 10941 10940 10938 10937 10935 10933 10930 10929 10927 10926 10925 10924 10922 10920 10918 10916 10915 10913 10911 10909 10906 10903 10901 10898 10895 10891 10888 10884 10880 10875 10870 10866 10861 10856 10851 10846 10841 10836 10831 10826 10822 10817 10813 10809 10804 10800 10795 10792 10788 10785 10781 10778 10776 10773 10771 10770 10768 10767 10765 10764 10763 10762 10760 10759 10759 10758
10926 10930 10933 10934 10934 10934 10936 10938 10939 10938 10938 10939 10940 10941 10942 10942 10941 10941 10940 10939 10937 10935 10934 10932 10929 10927 10925 10924 10923 10922 10920 10918 10917 10916 10914 10913 10911 10909 10907 10904 10901 10899 10896 10893 10890 10886 10883 10878 10874 10869 10865 10860 10855 10850 10845 10840 10835 10830 10825 10821 10816 10812 10808 10803 10799 10794 10790 10787 10783 10780 10777 10774 10772 10770 10768 10766 10765 10764 10763 10762 10760 10759 10758 10757 10756
10923 10925 10927 10928 10929 10931 10933 10934 10933 10933 10934 10935 10937 10938 10938 10938 10938 10938 10936 10935 10933 10932 10930 10927 10925 10923 10922 10921 10920 10918 10916 10915 10914 10913 10912 10910 10909 10907 10905 10902 10899 10896 10894 10891 10888 10885 10881 10877 10873 10868 10863 10859 10854 10849 10844 10839 10834 10829 10824 10819 10815 10811 10807 10802 10798 10794 10789 10786 10782 10779 10776 10773 10770 10768 10767 10765 10764 10763 10762 10760 10759 10758 10757 10756 10756
10918 10920 10921 10923 10925 10928 10929 10927 10927 10929 10931 10932 10933 10934 10934 10933 10933 10932 10930 10928 10928 10927 10924 10922 10921 10920 10919 10918 10916 10914 10913 10912 10911 10911 10909 10908 10906 10905 10903 10900 10897 10894 10892 10889 10886 10883 10879 10876 10871 10867 10862 10858 10853 10848 10843 10838 10834 10828 10823 10818 10814 10810 10806 10802 10797 10793 10789 10785 10782 10779 10775 10772 10770 10767 10766 10764 10763 10762 10761 10760 10759 10758 10757 10756 10755
10912 10914 10916 10918 10920 10922 10923 10922 10922 10925 10926 10927 10929 10930 10929 10928 10928 10927 10924 10922 10922 10920 10918 10918 10917 10917 10916 10914 10912 10911 10910 10909 10908 10908 10906 10905 10903 10902 10900 10897 10894 10892 10889 10886 10883 10880 10877 10874 10870 10865 10861 10857 10852 10847 10842 10837 10833 10828 10822 10818 10813 10809 10805 10801 10797 10793 10789 10785 10782 10779 10775 10772 10770 10767 10766 10764 10763 10762 10760 10759 10758 10757 10756 10755 10755
10905 10908 10910 10912 10914 10916 10917 10918 10919 10920 10921 10922 10924 10925 10923 10922 10922 10921 10919 10918 10917 10915 10914 10914 10914 10913 10912 10910 10908 10907 10907 10906 10905 10904 10903 10901 10900 10898 10897 10894 10892 10889 10887 10884 10881 10878 10875 10872 10868 10864 10859 10855 10851 10846 10841 10837 10832 10827 10822 10817 10813 10809 10805 10801 10797 10793 10789 10786 10782 10779 10776 10773 10770 10768 10766 10765 10763 10762 10761 10760 10758 10757 10756 10755 10754
10899 10901 10904 10906 10907 10909 10911 10913 10913 10913 10915 10917 10919 10919 10918 10916 10916 10915 10915 10914 10913 10911 10911 10911 10910 10909 10907 10906 10904 10904 10904 10902 10901 10900 10899 10898 10896 10895 10893 10891 10889 10886 10884 10881 10878 10875 10873 10869 10866 10862 10857 10853 10849 10845 10841 10836 10831 10826 10821 10816 10812 10808 10804 10801 10797 10793 10790 10786 10783 10779 10776 10773 10770 10768 10766 10765 10764 10763 10761 10760 10759 10758 10757 10756 10755
10892 10895 10897 10899 10900 10902 10904 10905 10905 10906 10910 10912 10912 10912 10912 10911 10909 10908 10908 10909 10908 10907 10907 10906 10905 10904 10903 10902 10901 10901 10900 10899 10898 10897 10896 10894 10893 10892 10890 10888 10886 10884 10881 10878 10875 10872 10870 10867 10863 10859 10855 10851 10847 10843 10839 10834 10830 10825 10820 10815 10811 10806 10803 10800 10796 10793 10790 10786 10783 10780 10777 10774 10771 10769 10767 10766 10765 10763 10762 10761 10760 10759 10757 10756 10755
10886 10888 10890 10892 10893 10895 10896 10898 10899 10902 10906 10907 10904 10902 10903 10904 10902 10902 10902 10902 10902 10902 10901 10901 10900 10899 10899 10898 10898 10898 10897 10896 10895 10894 10892 10891 10889 10888 10887 10885 10883 10880 10878 10875 10872 10870 10867 10864 10861 10857 10853 10849 10845 10841 10837 10832 10828 10823 10819 10814 10810 10805 10802 10799 10796 10793 10790 10787 10784 10781 10778 10774 10772 10770 10768 10766 10765 10764 10763 10761 10760 10759 10758 10757 10755
10880 10882 10883 10885 10887 10889 10891 10893 10894 10896 10899 10898 10895 10894 10895 10897 10897 10898 10897 10897 10897 10896 10896 10895 10895 10894 10894 10894 10894 10894 10894 10892 10891 10890 10889 10888 10886 10885 10884 10882 10880 10877 10875 10872 10870 10867 10865 10862 10858 10854 10851 10846 10843 10839 10835 10830 10826 10822 10817 10813 10808 10804 10801 10798 10795 10792 10789 10786 10783 10781 10778 10775 10772 10770 10768 10767 10765 10764 10762 10761 10760 10759 10758 10756 10755
10873 10875 10876 10879 10882 10884 10885 10886 10887 10889 10890 10890 10889 10889 10890 10891 10892 10893 10893 10892 10892 10891 10891 10890 10889 10889 10890 10890 10890 10890 10890 10889 10888 10887 10886 10885 10883 10882 10880 10879 10877 10874 10872 10870 10867 10864 10862 10859 10856 10852 10848 10844 10840 10836 10832 10828 10824 10820 10815 10811 10806 10802 10799 10796 10793 10791 10788 10786 10783 10780 10777 10775 10772 10770 10768 10766 10765 10763 10762 10761 10760 10758 10757 10755 10754
10866 10868 10870 10873 10876 10878 10878 10879 10881 10882 10884 10884 10884 10884 10884 10885 10886 10887 10887 10887 10886 10886 10886 10885 10885 10885 10885 10885 10885 10885 10885 10884 10884 10883 10882 10881 10880 10879 10877 10875 10873 10871 10869 10866 10864 10862 10860 10857 10853 10850 10846 10841 10838 10834 10830 10826 10821 10817 10813 10809 10805 10801 10797 10794 10792 10789 10787 10785 10782 10780 10777 10775 10772 10770 10768 10766 10764 10763 10761 10760 10759 10757 10755 10754 10752
10859 10861 10864 10867 10870 10871 10871 10873 10875 10876 10877 10877 10877 10878 10878 10879 10880 10881 10881 10881 10881 10881 10881 10881 10881 10881 10881 10881 10881 10880 10880 10880 10879 10878 10878 10877 10876 10875 10873 10872 10870 10868 10866 10863 10861 10859 10857 10854 10851 10847 10843 10839 10835 10831 10827 10823 10819 10815 10811 10807 10803 10799 10795 10792 10790 10787 10785 10783 10781 10779 10776 10774 10772 10769 10767 10765 10763 10761 10760 10758 10756 10755 10753 10752 10750
10854 10855 10858 10861 10863 10863 10865 10867 10869 10869 10869 10870 10871 10871 10872 10874 10875 10875 10875 10875 10875 10876 10876 10876 10876 10876 10876 10876 10876 10876 10876 10875 10875 10874 10873 10873 10872 10871 10869 10868 10866 10864 10862 10860 10858 10856 10854 10851 10848 10844 10840 10836 10832 10828 10825 10821 10817 10812 10808 10804 10800 10797 10793 10790 10788 10785 10783 10781 10779 10777 10775 10773 10771 10768 10766 10764 10762 10760 10758 10756 10754 10753 10751 10749 10748
10847 10849 10852 10854 10855 10856 10858 10859 10861 10862 10863 10863 10865 10866 10867 10868 10869 10870 10869 10869 10870 10870 10871 10871 10871 10871 10871 10871 10870 10870 10870 10870 10869 10869 10868 10867 10867 10866 10865 10864 10862 10860 10858 10856 10855 10853 10850 10848 10845 10841 10837 10833 10829 10826 10822 10818 10814 10810 10806 10802 10798 10794 10791 10788 10785 10783 10781 10780 10778 10776 10773 10771 10769 10767 10764 10762 10760 10758 10756 10754 10752 10751 10749 10747 10745
10838 10841 10844 10847 10849 10850 10852 10853 10855 10856 10857 10857 10858 10859 10860 10862 10863 10863 10863 10863 10863 10864 10864 10865 10865 10866 10866 10865 10864 10864 10865 10865 10864 10863 10862 10861 10861 10861 10860 10859 10858 10856 10854 10853 10851 10849 10847 10845 10841 10838 10834 10831 10827 10823 10819 10815 10811 10807 10804 10799 10795 10791 10788 10785 10783 10781 10779 10777 10776 10774 10772 10769 10767 10765 10763 10761 10759 10757 10755 10753 10751 10749 10747 10745 10743
10831 10833 10836 10839 10842 10844 10846 10847 10849 10850 10851 10852 10852 10853 10855 10856 10857 10857 10857 10857 10857 10857 10858 10858 10858 10860 10861 10859 10858 10858 10859 10859 10859 10858 10857 10856 10856 10856 10856 10855 10853 10851 10850 10849 10847 10845 10843 10841 10838 10835 10831 10828 10824 10820 10816 10812 10808 10805 10801 10797 10793 10789 10785 10782 10780 10778 10777 10775 10774 10772 10770 10768 10766 10764 10762 10760 10758 10755 10753 10751 10749 10747 10745 10743 10741
10825 10827 10829 10831 10835 10837 10839 10841 10842 10844 10845 10846 10847 10848 10850 10850 10851 10851 10851 10852 10851 10851 10852 10851 10852 10854 10854 10853 10852 10852 10853 10853 10853 10853 10852 10851 10851 10851 10851 10850 10849 10847 10846 10845 10843 10841 10839 10837 10835 10832 10828 10824 10821 10817 10813 10809 10805 10802 10798 10794 10790 10785 10782 10779 10777 10776 10774 10773 10772 10770 10768 10766 10764 10762 10760 10758 10756 10754 10752 10750 10748 10746 10743 10741 10739
10819 10820 10822 10825 10828 10829 10831 10833 10835 10837 10838 10838 10839 10841 10843 10844 10844 10844 10844 10845 10845 10845 10845 10844 10845 10847 10847 10846 10846 10847 10847 10847 10847 10847 10846 10846 10846 10846 10846 10845 10844 10843 10842 10840 10838 10837 10836 10833 10831 10828 10825 10821 10817 10813 10810 10806 10802 10798 10795 10791 10786 10782 10779 10776 10774 10773 10772 10771 10769 10768 10766 10764 10763 10761 10759 10757 10755 10753 10750 10748 10746 10744 10742 10739 10737
10812 10813 10815 10818 10821 10822 10823 10825 10827 10829 10830 10830 10831 10833 10835 10836 10836 10836 10837 10838 10838 10838 10838 10838 10838 10839 10840 10840 10841 10842 10841 10841 10841 10841 10841 10841 10841 10841 10841 10840 10840 10839 10838 10836 10834 10833 10831 10829 10827 10825 10821 10818 10814 10810 10806 10803 10799 10795 10791 10787 10783 10779 10776 10773 10772 10770 10769 10768 10767 10766 10764 10763 10761 10759 10757 10755 10753 10751 10749 10747 10744 10742 10740 10738 10735
10805 10806 10808 10811 10813 10814 10816 10818 10820 10821 10822 10823 10824 10826 10827 10828 10829 10830 10830 10831 10831 10832 10832 10831 10830 10831 10833 10835 10836 10836 10836 10835 10835 10835 10835 10835 10836 10836 10836 10836 10835 10834 10833 10832 10830 10828 10827 10825 10823 10821 10818 10814 10810 10807 10803 10799 10796 10792 10788 10784 10780 10776 10773 10771 10769 10768 10767 10766 10765 10763 10762 10761 10759 10757 10755 10753 10752 10749 10747 10745 10743 10741 10738 10736 10733
10797 10799 10801 10804 10806 10807 10809 10811 10813 10814 10815 10816 10817 10819 10820 10821 10822 10823 10824 10824 10825 10825 10825 10824 10823 10825 10828 10830 10831 10830 10829 10829 10829 10829 10829 10830 10831 10831 10831 10831 10830 10830 10829 10827 10826 10824 10822 10821 10819 10816 10814 10810 10807 10803 10800 10796 10792 10789 10785 10781 10777 10773 10770 10768 10767 10766 10765 10764 10763 10761 10760 10759 10757 10755 10753 10752 10750 10748 10746 10743 10741 10739 10737 10734 10732
10789 10791 10794 10796 10798 10800 10802 10804 10806 10807 10808 10809 10810 10811 10813 10814 10815 10816 10817 10817 10818 10818 10819 10818 10818 10819 10821 10823 10824 10823 10823 10823 10823 10823 10824 10825 10826 10826 10827 10827 10826 10825 10824 10823 10821 10820 10818 10816 10814 10812 10810 10806 10803 10800 10797 10793 10789 10785 10781 10777 10773 10770 10767 10766 10764 10763 10763 10762 10760 10759 10758 10757 10755 10753 10751 10750 10748 10746 10744 10742 10739 10737 10735 10732 10729
10781 10784 10787 10789 10791 10793 10795 10797 10799 10800 10801 10802 10803 10804 10806 10808 10808 10809 10810 10810 10810 10811 10812 10812 10812 10813 10815 10817 10818 10817 10817 10817 10817 10818 10818 10819 10820 10821 10822 10822 10821 10820 10819 10818 10817 10815 10814 10812 10810 10808 10805 10802 10799 10796 10793 10790 10786 10782 10778 10774 10770 10767 10765 10763 10762 10761 10760 10759 10758 10757 10756 10754 10753 10751 10749 10747 10745 10744 10742 10739 10737 10735 10733 10730 10727
10775 10777 10780 10781 10784 10786 10788 10790 10792 10793 10794 10795 10797 10798 10799 10800 10801 10801 10802 10803 10803 10804 10805 10805 10805 10806 10808 10810 10811 10810 10810 10811 10811 10812 10813 10814 10815 10816 10817 10817 10817 10816 10814 10813 10812 10811 10809 10808 10806 10804 10801 10798 10796 10793 10790 10786 10782 10779 10775 10771 10767 10764 10762 10761 10760 10759 10758 10757 10756 10755 10754 10752 10751 10749 10747 10745 10743 10741 10739 10737 10735 10733 10730 10727 10724
10768 10770 10773 10775 10777 10780 10782 10783 10785 10787 10788 10789 10790 10791 10792 10792 10793 10793 10794 10795 10796 10796 10797 10798 10799 10800 10801 10802 10803 10803 10804 10804 10805 10806 10807 10808 10809 10811 10812 10812 10811 10810 10809 10808 10807 10806 10805 10804 10802 10800 10797 10794 10792 10789 10786 10783 10779 10775 10771 10767 10764 10761 10760 10759 10758 10757 10756 10755 10754 10753 10751 10750 10749 10747 10745 10743 10741 10739 10737 10734 10732 10730 10727 10724 10721